Regional Weather Roundup
Issued by NWS Kansas City/Pleasant Hill, MO

Home | Current Version | Previous Version | Text Only | Print | Product List | Glossary On
Versions: 1 2 3 4 5 6 7 8 9 10 11 12 13 14 15 16 17 18 19 20 21 22 23 24 25 26 27 28 29 30 31 32 33 34 35 36 37 38 39 40 41 42 43 44 45 46 47 48 49 50
000
ASUS43 KEAX 090810
RWREAX

WEATHER ROUNDUP FOR EASTERN KANSAS AND NORTHWEST MISSOURI
NATIONAL WEATHER SERVICE KANSAS CITY/PLEASANT HILL MO
200 AM CST TUE FEB 09 2016

KSZ040-057-103>105-MOZ028-029-037-043-090900-
...KANSAS CITY METROPOLITAN AREA...

CITY           SKY/WX    TMP DP  RH WIND       PRES   REMARKS
K.C. INTL      CLEAR     26  14  60 NW14G26   30.03F WCI  14
K.C. DOWNTOWN  CLEAR     29  14  53 NW10G20   30.04F WCI  20
LEES SUMMIT    CLEAR     27  16  63 NW15G22   30.03S WCI  15
OLATHE - IXD   PTCLDY    29  18  63 NW21G26   30.05F WCI  16
OLATHE - OJC   CLEAR     27  15  61 NW12      30.04F WCI  17
LAWRENCE       CLEAR     29  19  66 NW13      30.07F WCI  19

$$

MOZ001>008-011>017-020>025-030>033-038>040-044>046-053-054-090900-
...NORTHERN AND CENTRAL MISSOURI...

CITY           SKY/WX    TMP DP  RH WIND       PRES   REMARKS
ST. JOSEPH     CLEAR     26  12  55 NW21G30   30.06S WCI  12
MOSBY          SUNNY     27  18  69 NW8       30.03F WCI  18
WARRENSBURG    CLEAR     27  18  69 NW10G18   30.02F WCI  17
WHITEMAN AFB   MOCLDY    24  13  65 NW17      30.00F WCI  10
CLINTON          N/A     25  19  80 NW6       30.03F WCI  18
SEDALIA        CLOUDY    24  14  65 NW18G28   30.00F WCI  10
WARSAW         NOT AVBL
CHILLICOTHE      N/A     21  12  68 NW9G24    30.02S WCI  11
KIRKSVILLE     FLURRIES  17   7  64 NW16G26   29.95R WCI   2

$$

MOZ041-047>049-056>058-063>065-088>090-097-090900-
...EASTERN AND SOUTHERN MISSOURI...

CITY           SKY/WX    TMP DP  RH WIND       PRES   REMARKS
ST. LOUIS INTL LGT SNOW  21  15  78 NW12      29.91F WCI   9
SPIRIT OF STL  LGT SNOW  21  15  78 NW8       29.92F WCI  11
COLUMBIA       CLOUDY    22  11  62 NW20G26   29.94S WCI   7
JEFFERSON CITY CLOUDY    24  11  57 NW22G29   29.97S WCI   9
ROLLA          FLURRIES  23  15  71 W24G35    29.89F WCI   7
OSAGE BEACH    CLOUDY    25  10  54 W14G22    29.97F WCI  13
SPRINGFIELD    CLEAR     28  14  55 NW14G23   30.00F WCI  17
BRANSON        CLEAR     28  14  54 NW14G26   30.01F WCI  17
JOPLIN         MOCLDY    30  18  60 W9        30.08F WCI  22
WEST PLAINS    PTCLDY    26  12  55 NW18G26   29.92F WCI  13

$$

IAZ060-094-KSZ022-034>040-054-083-096-NEZ052-066-093-090900-
...KANSAS...SOUTHEAST NEBRASKA AND IOWA...

CITY           SKY/WX    TMP DP  RH WIND       PRES   REMARKS
TOPEKA         MOCLDY    33  19  56 NW17G24   30.09S WCI  22
MANHATTAN      MOCLDY    31  20  63 W7        30.14F WCI  24
EMPORIA        CLEAR     29  18  63 NW13      30.11S WCI  19
CHANUTE        MOCLDY    32  19  58 NW16      30.11F WCI  21
WICHITA        CLEAR     31  18  58 NW13      30.17F WCI  21
OMAHA          CLEAR     22  12  65 N22G30    30.08S WCI   6
LINCOLN        PTCLDY    26  14  60 N23G31    30.13S WCI  11
FALLS CITY     CLEAR     27  14  58 NW13G23   30.07S WCI  16
LAMONI         CLOUDY    15   5  64 N25G37    29.99F WCI  -4
DES MOINES     LGT SNOW  14   6  70 N17G25    30.01R WCI  -3

$$




USA.gov is the U.S. government's official web portal to all federal, state and local government web resources and services.